{"data":{"norad_id":49744,"intl_designator":"2021-115W","name":"STARLINK-3231","alt_names":[],"object_type":"PAYLOAD","status":"ACTIVE","operator":null,"country":"US","launch_date":"2021-12-02","launch_site_code":"AFETR","launch_vehicle":null,"mission":null,"orbit_class":"UNKNOWN","rcs_meters":null,"size_class":null,"mass_kg":null,"dimensions":null,"purposes":["comms"],"wikipedia_slug":null,"has_3d_model":false,"image_url":null,"decayed_at":null,"tle_current":{"epoch":"2026-09-19T14:08:15.710208Z","epoch_age_seconds":123715,"freshness":"FRESH","line1":"1 49744U 21115W   26262.58907072  .00000643  00000+0  32491-4 0  9999","line2":"2 49744  53.1619 343.9996 0001131  79.7339 280.3790 15.31703582265009","mean_motion":15.31703582,"eccentricity":0.0001131,"inclination_deg":53.1619,"raan_deg":343.9996,"arg_perigee_deg":79.7339,"mean_anomaly_deg":280.379,"bstar":3.2491e-5,"rev_number":26500,"period_min":94.012968104425,"perigee_km":469.95471071034,"apogee_km":471.50392427136,"semimajor_km":6848.8663174908,"source":"CELESTRAK","updated_at":"2026-09-20T09:00:39.407027Z"}}}